TimeCDT,TemperatureF,Dew PointF,Humidity,Sea Level PressureIn,VisibilityMPH,Wind Direction,Wind SpeedMPH,Gust SpeedMPH,PrecipitationIn,Events,Conditions,WindDirDegrees,DateUTC
12:12 AM,62.6,60.8,94,29.94,10.0,Calm,Calm,-,0.00,Rain,Light Rain,0,2013-07-26 05:12:00
12:18 AM,62.6,60.8,94,29.95,4.0,NW,9.2,-,0.03,Rain-Thunderstorm,Heavy Thunderstorms and Rain,310,2013-07-26 05:18:00
12:24 AM,62.6,60.8,94,29.95,1.8,Variable,3.5,-,0.12,Rain-Thunderstorm,Heavy Thunderstorms and Rain,0,2013-07-26 05:24:00
12:32 AM,62.6,60.8,94,29.92,2.0,ENE,8.1,-,0.15,Rain,Rain,60,2013-07-26 05:32:00
12:35 AM,62.6,60.8,94,29.92,4.0,East,4.6,-,0.15,Rain,Rain,90,2013-07-26 05:35:00
12:54 AM,62.1,60.1,93,29.89,10.0,SE,9.2,-,0.17,Rain,Light Rain,140,2013-07-26 05:54:00
1:45 AM,60.8,60.8,100,29.90,10.0,SSE,6.9,-,0.00,,Mostly Cloudy,150,2013-07-26 06:45:00
1:54 AM,61.0,60.1,97,29.89,10.0,SSE,4.6,-,0.00,,Mostly Cloudy,160,2013-07-26 06:54:00
2:42 AM,60.8,59.0,94,29.90,1.8,South,8.1,-,N/A,,Overcast,190,2013-07-26 07:42:00
2:54 AM,61.0,60.1,97,29.89,1.5,South,4.6,-,N/A,,Overcast,180,2013-07-26 07:54:00
3:02 AM,60.8,60.8,100,29.89,3.0,SSW,3.5,-,N/A,,Overcast,210,2013-07-26 08:02:00
3:44 AM,60.8,57.2,88,29.89,10.0,Calm,Calm,-,N/A,,Scattered Clouds,0,2013-07-26 08:44:00
3:54 AM,59.0,57.9,96,29.88,8.0,SSW,4.6,-,N/A,,Clear,200,2013-07-26 08:54:00
4:08 AM,59.0,57.2,94,29.88,10.0,Calm,Calm,-,N/A,,Partly Cloudy,0,2013-07-26 09:08:00
4:54 AM,57.9,55.9,93,29.86,10.0,Calm,Calm,-,N/A,,Clear,0,2013-07-26 09:54:00
5:54 AM,60.1,59.0,96,29.87,9.0,Calm,Calm,-,0.00,Rain,Light Rain,0,2013-07-26 10:54:00
6:54 AM,61.0,59.0,93,29.87,9.0,Calm,Calm,-,0.00,,Overcast,0,2013-07-26 11:54:00
7:38 AM,62.6,60.8,94,29.88,9.0,ESE,4.6,-,0.00,Rain,Light Rain,120,2013-07-26 12:38:00
7:54 AM,62.1,60.1,93,29.88,10.0,SSE,6.9,-,0.00,,Overcast,150,2013-07-26 12:54:00
8:18 AM,62.6,60.8,94,29.89,10.0,Variable,3.5,-,N/A,,Overcast,0,2013-07-26 13:18:00
8:37 AM,62.6,60.8,94,29.90,10.0,Calm,Calm,-,N/A,Thunderstorm,Overcast,0,2013-07-26 13:37:00
8:52 AM,62.6,60.8,94,29.89,10.0,South,4.6,-,N/A,,Overcast,170,2013-07-26 13:52:00
8:54 AM,62.1,60.1,93,29.90,10.0,South,3.5,-,N/A,,Overcast,180,2013-07-26 13:54:00
9:36 AM,62.6,60.8,94,29.89,10.0,South,6.9,-,N/A,,Overcast,190,2013-07-26 14:36:00
9:54 AM,64.0,61.0,90,29.89,10.0,SSW,4.6,-,N/A,,Overcast,200,2013-07-26 14:54:00
10:12 AM,64.4,62.6,94,29.87,10.0,SSE,3.5,-,N/A,,Overcast,160,2013-07-26 15:12:00
10:54 AM,64.9,61.0,87,29.86,10.0,South,8.1,-,N/A,,Overcast,180,2013-07-26 15:54:00
11:08 AM,64.4,62.6,94,29.85,7.0,Calm,Calm,-,0.00,Rain,Light Rain,0,2013-07-26 16:08:00
11:54 AM,64.0,62.1,93,29.86,8.0,SW,4.6,-,0.03,Rain,Light Rain,220,2013-07-26 16:54:00
12:26 PM,64.4,62.6,94,29.84,10.0,South,5.8,-,0.00,Rain,Light Rain,170,2013-07-26 17:26:00
12:54 PM,64.9,62.1,90,29.84,10.0,South,4.6,-,0.00,Rain,Light Rain,190,2013-07-26 17:54:00
1:08 PM,64.4,62.6,94,29.85,10.0,Calm,Calm,-,0.00,Rain-Thunderstorm,Light Thunderstorms and Rain,0,2013-07-26 18:08:00
1:22 PM,64.4,60.8,88,29.84,8.0,North,11.5,-,0.00,Rain-Thunderstorm,Rain,10,2013-07-26 18:22:00
1:36 PM,62.6,60.8,94,29.83,5.0,North,11.5,18.4,0.02,Rain,Rain,360,2013-07-26 18:36:00
1:54 PM,64.0,59.0,84,29.84,10.0,North,10.4,-,0.02,,Mostly Cloudy,360,2013-07-26 18:54:00
2:54 PM,66.0,57.9,75,29.81,10.0,Calm,Calm,-,N/A,,Overcast,0,2013-07-26 19:54:00
3:54 PM,69.1,57.9,68,29.81,10.0,WNW,4.6,-,N/A,,Partly Cloudy,300,2013-07-26 20:54:00
4:47 PM,69.8,57.2,64,29.83,10.0,North,5.8,-,N/A,Thunderstorm,Mostly Cloudy,360,2013-07-26 21:47:00
4:54 PM,66.0,59.0,78,29.85,5.0,NNW,15.0,20.7,0.02,Rain-Thunderstorm,Heavy Rain,330,2013-07-26 21:54:00
5:05 PM,62.6,55.4,77,29.84,5.0,North,12.7,-,0.03,Rain-Thunderstorm,Heavy Rain,350,2013-07-26 22:05:00
5:25 PM,60.8,55.4,82,29.86,10.0,East,4.6,-,0.03,Rain-Thunderstorm,Light Thunderstorms and Rain,90,2013-07-26 22:25:00
5:49 PM,60.8,57.2,88,29.86,10.0,Variable,4.6,-,0.03,Rain,Light Rain,0,2013-07-26 22:49:00
5:54 PM,61.0,57.0,87,29.87,10.0,Calm,Calm,-,0.03,Rain,Light Rain,0,2013-07-26 22:54:00
6:54 PM,59.0,55.9,90,29.89,4.0,NNW,8.1,-,0.04,Rain,Rain,330,2013-07-26 23:54:00
6:58 PM,59.0,55.4,88,29.89,2.0,North,6.9,-,0.01,Rain,Heavy Rain,350,2013-07-26 23:58:00
7:09 PM,59.0,55.4,88,29.89,9.0,NNW,11.5,-,0.01,Rain,Light Rain,340,2013-07-27 00:09:00
7:20 PM,57.2,55.4,94,29.90,9.0,NNW,9.2,-,0.01,Rain,Light Rain,330,2013-07-27 00:20:00
7:54 PM,55.0,52.0,89,29.91,5.0,NNW,15.0,-,0.03,Rain,Light Rain,330,2013-07-27 00:54:00
8:42 PM,51.8,48.2,88,29.93,10.0,NW,12.7,-,0.00,,Overcast,320,2013-07-27 01:42:00
8:54 PM,51.1,48.0,89,29.94,10.0,NW,13.8,-,0.00,,Overcast,320,2013-07-27 01:54:00
9:54 PM,50.0,46.0,86,29.94,10.0,NW,11.5,-,N/A,,Overcast,320,2013-07-27 02:54:00
10:54 PM,48.9,45.0,86,29.93,10.0,NW,10.4,-,N/A,,Overcast,320,2013-07-27 03:54:00
11:54 PM,48.9,45.0,86,29.92,10.0,NW,10.4,-,N/A,,Overcast,320,2013-07-27 04:54:00